Meteo pe oră la Dąbie

Astăzi, 14 Aprilie, Miercuri

Timp Temperatura Precipitaţii Vânt Presiune Umiditate
00:00 +3°C° 0 mm 4 m/s 758 mmHg 63%
01:00 +3°C° 0 mm 4 m/s 758 mmHg 65%
02:00 +3°C° 0 mm 3 m/s 758 mmHg 67%
03:00 +2°C° 0 mm 3 m/s 758 mmHg 68%
04:00 +3°C° 0 mm 2 m/s 758 mmHg 70%
05:00 +2°C° 0 mm 3 m/s 758 mmHg 69%
06:00 +2°C° 0 mm 3 m/s 758 mmHg 69%
07:00 +3°C° 0 mm 3 m/s 758 mmHg 68%
08:00 +3°C° 0 mm 3 m/s 758 mmHg 66%
09:00 +4°C° 0 mm 4 m/s 758 mmHg 64%
10:00 +4°C° 0 mm 4 m/s 758 mmHg 62%
11:00 +5°C° 0 mm 4 m/s 758 mmHg 59%
12:00 +5°C° 0 mm 5 m/s 758 mmHg 57%
13:00 +5°C° 0 mm 5 m/s 758 mmHg 54%
14:00 +5°C° 0.1 mm 5 m/s 757 mmHg 59%
15:00 +5°C° 0.1 mm 5 m/s 757 mmHg 64%
16:00 +4°C° 0.1 mm 6 m/s 757 mmHg 68%
17:00 +3°C° 0.1 mm 5 m/s 757 mmHg 69%
18:00 +3°C° 0.1 mm 5 m/s 757 mmHg 69%
19:00 +2°C° 0.1 mm 5 m/s 757 mmHg 70%
20:00 +2°C° 0 mm 5 m/s 758 mmHg 71%
21:00 +2°C° 0 mm 5 m/s 758 mmHg 71%
22:00 +1°C° 0 mm 5 m/s 758 mmHg 72%
23:00 +1°C° 0.1 mm 5 m/s 757 mmHg 78%

Mâine, 15 Aprilie, Joi

Timp Temperatura Precipitaţii Vânt Presiune Umiditate
00:00 0°C° 0.1 mm 5 m/s 757 mmHg 84%
01:00 -1°C° 0.1 mm 6 m/s 757 mmHg 91%
02:00 -2°C° 0.4 mm 6 m/s 757 mmHg 93%
03:00 -2°C° 0.4 mm 6 m/s 757 mmHg 95%
04:00 -2°C° 0.4 mm 6 m/s 756 mmHg 97%
05:00 -2°C° 0.5 mm 6 m/s 756 mmHg 97%
06:00 -1°C° 0.5 mm 6 m/s 756 mmHg 97%
07:00 -1°C° 0.5 mm 6 m/s 756 mmHg 97%
08:00 -1°C° 0.7 mm 6 m/s 756 mmHg 97%
09:00 -1°C° 0.7 mm 6 m/s 756 mmHg 97%
10:00 0°C° 0.7 mm 5 m/s 756 mmHg 97%
11:00 0°C° 0.7 mm 5 m/s 756 mmHg 97%
12:00 0°C° 0.7 mm 5 m/s 756 mmHg 98%
13:00 0°C° 0.7 mm 5 m/s 756 mmHg 98%
14:00 0°C° 0.5 mm 4 m/s 755 mmHg 98%
15:00 0°C° 0.5 mm 4 m/s 755 mmHg 98%
16:00 0°C° 0.5 mm 4 m/s 755 mmHg 98%
17:00 0°C° 0.3 mm 4 m/s 755 mmHg 98%
18:00 0°C° 0.3 mm 4 m/s 755 mmHg 98%
19:00 +1°C° 0.3 mm 3 m/s 755 mmHg 98%
20:00 +2°C° 0.3 mm 3 m/s 755 mmHg 98%
21:00 +2°C° 0.3 mm 3 m/s 755 mmHg 99%
22:00 +2°C° 0.3 mm 3 m/s 755 mmHg 99%
23:00 +2°C° 0.2 mm 3 m/s 755 mmHg 98%

Poimâine, 16 Aprilie, Vineri

Timp Temperatura Precipitaţii Vânt Presiune Umiditate
00:00 +3°C° 0.2 mm 3 m/s 755 mmHg 98%
01:00 +3°C° 0.2 mm 3 m/s 754 mmHg 98%
02:00 +3°C° 0.4 mm 3 m/s 754 mmHg 97%
03:00 +3°C° 0.4 mm 3 m/s 754 mmHg 96%
04:00 +3°C° 0.4 mm 3 m/s 755 mmHg 96%
05:00 +3°C° 0.3 mm 3 m/s 755 mmHg 95%
06:00 +3°C° 0.3 mm 4 m/s 755 mmHg 94%
07:00 +3°C° 0.3 mm 4 m/s 755 mmHg 93%
08:00 +3°C° 0.1 mm 4 m/s 755 mmHg 93%
09:00 +3°C° 0.1 mm 4 m/s 755 mmHg 94%
10:00 +3°C° 0.1 mm 4 m/s 755 mmHg 95%
11:00 +3°C° 0 mm 4 m/s 755 mmHg 95%
12:00 +3°C° 0 mm 4 m/s 756 mmHg 96%
13:00 +3°C° 0 mm 4 m/s 756 mmHg 96%
14:00 +3°C° 0.1 mm 4 m/s 756 mmHg 96%
15:00 +3°C° 0.1 mm 4 m/s 756 mmHg 96%
16:00 +3°C° 0.1 mm 4 m/s 756 mmHg 96%
17:00 +3°C° 0.1 mm 3 m/s 756 mmHg 97%
18:00 +3°C° 0.1 mm 3 m/s 756 mmHg 97%
19:00 +3°C° 0.1 mm 3 m/s 756 mmHg 97%
20:00 +3°C° 0 mm 3 m/s 756 mmHg 97%
21:00 +3°C° 0 mm 3 m/s 756 mmHg 98%
22:00 +3°C° 0 mm 3 m/s 756 mmHg 98%
23:00 +3°C° 0 mm 3 m/s 756 mmHg 98%

17 Aprilie, Sâmbătă

Timp Temperatura Precipitaţii Vânt Presiune Umiditate
00:00 +4°C° 0 mm 3 m/s 756 mmHg 98%
01:00 +4°C° 0 mm 3 m/s 756 mmHg 98%
02:00 +4°C° 0 mm 3 m/s 756 mmHg 98%
03:00 +4°C° 0 mm 3 m/s 756 mmHg 97%
04:00 +4°C° 0 mm 3 m/s 756 mmHg 97%
05:00 +4°C° 0.2 mm 3 m/s 756 mmHg 97%
06:00 +4°C° 0.2 mm 3 m/s 756 mmHg 97%
07:00 +5°C° 0.2 mm 3 m/s 756 mmHg 97%
08:00 +5°C° 0.1 mm 3 m/s 756 mmHg 96%
09:00 +7°C° 0.1 mm 3 m/s 756 mmHg 95%
10:00 +7°C° 0.1 mm 3 m/s 756 mmHg 94%
11:00 +8°C° 0.1 mm 3 m/s 756 mmHg 91%
12:00 +8°C° 0.1 mm 3 m/s 756 mmHg 89%
13:00 +9°C° 0.1 mm 3 m/s 756 mmHg 86%
14:00 +10°C° 0.2 mm 3 m/s 756 mmHg 83%
15:00 +10°C° 0.2 mm 3 m/s 755 mmHg 81%
16:00 +11°C° 0.2 mm 3 m/s 755 mmHg 78%
17:00 +10°C° 0.3 mm 3 m/s 755 mmHg 82%
18:00 +9°C° 0.3 mm 2 m/s 755 mmHg 86%
19:00 +8°C° 0.3 mm 2 m/s 755 mmHg 90%
20:00 +7°C° 0 mm 2 m/s 756 mmHg 91%
21:00 +7°C° 0 mm 2 m/s 756 mmHg 93%
22:00 +5°C° 0 mm 3 m/s 756 mmHg 94%
23:00 +6°C° 0 mm 2 m/s 756 mmHg 95%

18 Aprilie, Duminică

Timp Temperatura Precipitaţii Vânt Presiune Umiditate
00:00 +5°C° 0 mm 2 m/s 756 mmHg 96%
01:00 +5°C° 0 mm 2 m/s 756 mmHg 96%
02:00 +5°C° 0 mm 2 m/s 756 mmHg 96%
03:00 +4°C° 0 mm 3 m/s 756 mmHg 96%
04:00 +3°C° 0 mm 3 m/s 756 mmHg 96%
05:00 +4°C° 0 mm 3 m/s 756 mmHg 93%
06:00 +4°C° 0 mm 3 m/s 756 mmHg 90%
07:00 +5°C° 0 mm 4 m/s 756 mmHg 86%
08:00 +6°C° 0 mm 4 m/s 756 mmHg 81%
09:00 +7°C° 0 mm 4 m/s 757 mmHg 75%
10:00 +8°C° 0 mm 4 m/s 757 mmHg 70%
11:00 +10°C° 0 mm 3 m/s 757 mmHg 67%
12:00 +11°C° 0 mm 3 m/s 756 mmHg 65%
13:00 +11°C° 0 mm 3 m/s 756 mmHg 62%
14:00 +11°C° 0 mm 3 m/s 756 mmHg 64%
15:00 +11°C° 0 mm 3 m/s 756 mmHg 65%
16:00 +12°C° 0 mm 3 m/s 756 mmHg 67%
17:00 +11°C° 0 mm 3 m/s 756 mmHg 69%
18:00 +10°C° 0 mm 2 m/s 756 mmHg 72%
19:00 +9°C° 0 mm 2 m/s 756 mmHg 75%
20:00 +9°C° 0 mm 2 m/s 756 mmHg 76%
21:00 +9°C° 0 mm 2 m/s 756 mmHg 77%
22:00 +9°C° 0 mm 2 m/s 756 mmHg 78%
23:00 +9°C° 0 mm 2 m/s 756 mmHg 80%

19 Aprilie, Luni

Timp Temperatura Precipitaţii Vânt Presiune Umiditate
00:00 +9°C° 0 mm 2 m/s 756 mmHg 83%
01:00 +8°C° 0 mm 2 m/s 756 mmHg 85%
02:00 +8°C° 0 mm 2 m/s 756 mmHg 87%
03:00 +8°C° 0 mm 3 m/s 756 mmHg 89%
04:00 +8°C° 0 mm 3 m/s 756 mmHg 92%
05:00 +8°C° 0.1 mm 3 m/s 756 mmHg 91%
06:00 +8°C° 0 mm 4 m/s 756 mmHg 90%
07:00 +8°C° 0 mm 4 m/s 756 mmHg 89%
08:00 +10°C° 0 mm 4 m/s 756 mmHg 85%
09:00 +9°C° 0 mm 5 m/s 756 mmHg 81%
10:00 +10°C° 0 mm 5 m/s 756 mmHg 77%
11:00 +10°C° 0.1 mm 5 m/s 755 mmHg 73%
12:00 +12°C° 0.1 mm 5 m/s 755 mmHg 68%
13:00 +13°C° 0.1 mm 5 m/s 755 mmHg 64%
14:00 +12°C° 0.2 mm 5 m/s 755 mmHg 69%
15:00 +12°C° 0.2 mm 4 m/s 755 mmHg 74%
16:00 +11°C° 0.2 mm 4 m/s 755 mmHg 79%
17:00 +11°C° 0.1 mm 4 m/s 755 mmHg 81%
18:00 +10°C° 0.1 mm 4 m/s 755 mmHg 84%
19:00 +8°C° 0.1 mm 4 m/s 755 mmHg 87%
20:00 +8°C° 0 mm 4 m/s 755 mmHg 87%
21:00 +8°C° 0 mm 4 m/s 755 mmHg 88%
22:00 +8°C° 0 mm 4 m/s 755 mmHg 88%
23:00 +8°C° 0 mm 4 m/s 754 mmHg 88%
Arată mai mult

Formular de consimțământ

Meteoprog și furnizorii noștri de servicii pot stoca și accesa date personale, precum cookies, identificatori de dispozitiv sau alte tehnologii similare pe dispozitivul dumneavoastră și procesa astfel de date pentru a personaliza conținutul și reclamele, dar și pentru a oferi caracteristici de social media și pentru a analiza traficul.

  • Stocarea și/sau accesarea informațiilor pe dispozitivul dumneavoastră

    Cookies, identificatori de dispozitiv sau alte informații pot fi stocate sau accesate pe dispozitiv în scopurile indicate mai sus.

  • Reclame și conținut personalizat, evaluarea reclamelor și a conținutului, informații despre audiențe și dezvoltarea produselor

    Reclamele și conținutul pot fi personalizate pe baza unui profil. Pot fi adăugate date suplimentare pentru a personaliza mai bine reclamele și conținutul. Performanța reclamelor și conținutului poate fi măsurată. Pot fi obținute informații despre utilizatorii care au văzut reclamele și conținutul. Aceste date pot fi utilizate pentru a dezvolta sau îmbunătăți experiența utilizatorilor, sistemele și software-ul.

Dând clic pe ‘Sunt de acord’, permiteți utilizarea cookie-urilor menționate, a identificatorilor de dispozitiv, balizelor web sau altor tehnologii similare. Setările pot fi modificate din browser-ul dispozitivului dumneavoastră.

În anumite scopuri, interesele legitime pot prima asupra consimțământului. Puteți citi mai multe informații în acest sens în Politica privind Confidențialitatea Datelor și Cookie.